Terug naar catalogus

STARLINK-36936

ActiefCommunicatieVLEO
NORAD 68012·PAYLOAD·🇺🇸 United States

Gelanceerd Feb 27, 2026 vanaf Vandenberg Space Force Base

Loading…

Volgende Passages (komende 24 uur)

TLE

VersSource: CelesTrak SupGP

Epoch: Sep 14, 2026, 21:21 UTC

1 68012C 26039AC  26257.89006944  .00049528  00000+0  17940-2 0  2576
2 68012  43.0029  60.0942 0001334 274.5632  60.4126 15.27551780    19

Volg STARLINK-36936 in realtime met AllMySat

Download on the App Store